sat.trackr.live / text

‹ back to catalog

PACE-1

NORAD 48909 · 2021-059AG

PAYLOAD ACTIVE UNKNOWN

§ Identity

Operator
Country
US
Launch date
2021-06-30
Launch site
AFETR
Launch vehicle
Mass (kg)
RCS (m²)

External: N2YO · Heavens-Above · Gunter

§ Orbital elements

Epoch: 2026-09-12T12:53:29.946624Z

Period
89.43 min
Inclination
97.6712°
Eccentricity
0.0003083
Mean motion
16.10126530 rev/d
Perigee alt
244.5 km
Apogee alt
248.5 km
Semi-major
6,624.6 km
B*
5.7143e-4
RAAN
105.0271°
Arg perigee
241.8901°
Mean anomaly
118.2070°
Rev number
29,168

§ Raw data

PACE-11 48909U 21059AG  26255.53715216  .00533573  14923-3  57143-3 0  99982 48909  97.6712 105.0271 0003083 241.8901 118.2070 16.10126530291689

JSON: /api/v1/satellites/48909 · /tle

For live sub-satellite position, see the globe view (requires WebGL).

§ Visibility from observer

Set your observer location to see the next 7 days of passes ≥ 10°. The values pass through the URL so the page stays shareable.

No JS? Fill the form by hand. The geolocation button needs JavaScript.

§ Radio — SatNOGS DB

ModeDescriptionDownlinkUplink
FM S-band telemetry 2.283 GHz

1 transmitter · refreshed weekly from db.satnogs.org